[[{"header":{"parameterUnit":"m.s-1","parameterCategory":1,"la1":30.2991,"la2":30.254,"lo1":-89.0895,"lo2":-89.0444,"dy":0.0017,"dx":0.0017,"nx":28,"ny":28,"refTime":"2025-03-18T21:00:00:Z","depth":0,"parameterNumber":2,"parameterNumberName":"U-component_of_WINDS"},"data":[0,0,0,0,0,0,0,0,0,0,0,0,0,0,0,0,0,0,0,0,0,0,0,0,0,0,0,0,0,0,0,0,0,0,0,0,0,0,0,0,0,0,0,0,0,0,0,0,0,0,0,0,0,0,0,0,0,0,-1.0395,-1.0394,0,-1.0358,-1.0357,-1.0357,-1.0344,-1.0344,-1.0344,-1.0344,-1.0308,-1.0307,-1.0306,0,0,0,0,0,0,0,0,0,0,0,0,0,-1.0457,-1.0456,-1.0395,-1.0394,-1.0394,-1.0358,-1.0357,-1.0357,-1.0344,-1.0344,-1.0344,-1.0345,-1.0309,-1.0307,-1.0306,0,0,0,0,0,0,0,0,0,0,0,0,0,-1.0426,-1.0455,-1.0395,-1.0383,-1.0382,-1.0358,-1.0357,-1.0357,-1.0344,-1.0344,-1.0344,-1.0345,-1.0309,-1.0308,-1.0306,-1.0292,0,0,-1.0301,-1.03,0,0,0,0,0,0,0,0,-1.0428,-1.0424,-1.0385,-1.0384,-1.0382,-1.0356,-1.0366,-1.0335,-1.0344,-1.0358,-1.0344,-1.0345,-1.0324,-1.0321,-1.0314,-1.029,-1.0289,-1.0301,-1.03,-1.0299,-1.0299,0,0,0,0,0,0,0,-1.043,-1.0425,-1.038,-1.0385,-1.0383,-1.0381,-1.0376,-1.036,-1.0341,-1.0357,-1.0356,-1.0352,-1.0323,-1.0316,-1.0313,-1.0288,-1.0301,-1.0299,-1.0298,-1.0298,-1.0252,-1.0251,0,0,0,0,0,0,-1.0434,-1.0427,-1.0381,-1.0379,-1.0406,-1.0379,-1.0375,-1.0364,-1.0341,-1.0337,-1.0352,-1.0351,-1.0318,-1.0315,-1.0312,-1.0294,-1.0299,-1.0298,-1.0297,-1.0252,-1.0252,-1.0251,0,0,0,0,0,0,-1.0435,-1.043,-1.0383,-1.0403,-1.0397,-1.0378,-1.0366,-1.0363,-1.0355,-1.0337,-1.0333,-1.0347,-1.0318,-1.0314,-1.0297,-1.0292,-1.0297,-1.0295,-1.0252,-1.0252,-1.0251,-1.0258,0,0,0,0,0,0,-1.0437,-1.043,-1.0424,-1.0403,-1.0396,-1.0368,-1.0366,-1.0362,-1.0352,-1.0352,-1.0331,-1.0328,-1.0318,-1.0299,-1.0295,-1.029,-1.0294,-1.0252,-1.0252,-1.0252,-1.0258,-1.0258,-1.0257,0,0,0,0,0,-1.0439,-1.0428,-1.0424,-1.0418,-1.0387,-1.0368,-1.0364,-1.0352,-1.0352,-1.0346,-1.0334,-1.0329,-1.0294,-1.0298,-1.0293,-1.0287,-1.0253,-1.0252,-1.0252,-1.0258,-1.0258,-1.0257,0,0,0,0,0,0,-1.045,-1.0425,-1.042,-1.0401,-1.0387,-1.0366,-1.0358,-1.0352,-1.0337,-1.0337,-1.0324,-1.0319,-1.0303,-1.0294,-1.0299,-1.0273,-1.0273,-1.0271,-1.0279,-1.0279,-1.0279,-1.0281,-1.0293,0,0,0,0,0,-1.045,-1.0435,-1.0415,-1.04,-1.0393,-1.0377,-1.0368,-1.036,-1.0344,-1.0338,-1.0325,-1.0311,-1.0296,-1.0287,-1.0273,-1.0257,-1.0252,-1.0251,-1.025,-1.025,-1.0249,-1.024,-1.0239,-1.0249,-1.0249,-1.0249,0,0,-1.045,-1.0435,-1.0426,-1.0402,-1.0389,-1.0375,-1.0371,-1.0357,-1.0346,-1.0336,-1.0319,-1.0309,-1.0292,-1.0275,-1.0267,-1.0267,-1.0245,-1.025,-1.025,-1.0248,-1.0239,-1.0238,-1.0238,-1.0249,-1.0249,-1.0249,0,0,-1.0443,-1.043,-1.0416,-1.0404,-1.0385,-1.0374,-1.0371,-1.0351,-1.0344,-1.0326,-1.0318,-1.0306,-1.0282,-1.027,-1.0261,-1.0251,-1.0246,-1.0247,-1.0245,-1.0237,-1.0236,-1.0235,-1.0232,-1.023,-1.0246,-1.0246,-1.0246,0,-1.0446,-1.0423,-1.041,-1.0395,-1.0385,-1.0375,-1.0361,-1.0351,-1.0329,-1.0322,-1.0322,-1.0291,-1.0279,-1.026,-1.0257,-1.025,-1.0247,-1.0249,-1.0237,-1.0236,-1.0235,-1.0232,-1.023,-1.0246,-1.0246,-1.0246,-1.0246,0,-1.0428,-1.0412,-1.0404,-1.0382,-1.0371,-1.0357,-1.0343,-1.0333,-1.0326,-1.0316,-1.0299,-1.0284,-1.0267,-1.0262,-1.0255,-1.0242,-1.0242,-1.024,-1.024,-1.0235,-1.0231,-1.023,-1.0246,-1.0246,-1.0246,-1.0246,0,0,-1.0426,-1.0397,-1.0394,-1.0384,-1.0363,-1.0351,-1.0337,-1.032,-1.0312,-1.0298,-1.0286,-1.0266,-1.0264,-1.0254,-1.0246,-1.0238,-1.0231,-1.0237,-1.0236,-1.0236,-1.0216,-1.0217,-1.0216,-1.0228,-1.0227,-1.0227,-1.0217,0,-1.0416,-1.0389,-1.0377,-1.0357,-1.0343,-1.0333,-1.0321,-1.0308,-1.0298,-1.0285,-1.0275,-1.0261,-1.0259,-1.0253,-1.0245,-1.0234,-1.0227,-1.0234,-1.0217,-1.0217,-1.0221,-1.0214,-1.0216,-1.0207,-1.0216,-1.0215,-1.0215,0,-1.0401,-1.0385,-1.0363,-1.0344,-1.0337,-1.0327,-1.031,-1.0298,-1.0283,-1.0276,-1.0265,-1.0257,-1.0243,-1.0245,-1.0225,-1.0231,-1.0223,-1.0217,-1.0216,-1.0214,-1.0215,-1.0212,-1.0204,-1.0202,-1.0213,-1.0213,-1.0213,0,-1.0401,-1.0375,-1.0359,-1.035,-1.0328,-1.032,-1.0311,-1.0295,-1.0286,-1.0272,-1.0265,-1.025,-1.0242,-1.0231,-1.022,-1.0221,-1.0202,-1.0202,-1.0196,-1.0197,-1.0192,-1.0193,-1.0183,-1.0188,-1.0188,-1.0188,-1.0188,0,-1.0391,-1.0378,-1.0359,-1.0348,-1.0334,-1.0321,-1.0307,-1.0296,-1.0283,-1.0271,-1.0263,-1.0252,-1.0238,-1.0226,-1.0217,-1.0203,-1.0199,-1.0194,-1.0192,-1.0195,-1.0195,-1.019,-1.019,-1.0188,-1.0188,-1.0188,-1.0188,0,-1.039,-1.0376,-1.0357,-1.0337,-1.0332,-1.0322,-1.0305,-1.0295,-1.0285,-1.027,-1.0266,-1.0251,-1.0236,-1.0224,-1.0205,-1.0199,-1.0184,-1.0182,-1.0189,-1.0188,-1.0183,-1.0184,-1.0169,-1.0167,-1.0174,-1.0174,-1.0174,0,-1.0384,-1.0373,-1.0352,-1.0343,-1.0333,-1.0319,-1.0309,-1.0296,-1.0287,-1.0268,-1.0261,-1.0246,-1.0233,-1.021,-1.0197,-1.0183,-1.018,-1.0176,-1.0178,-1.0181,-1.018,-1.0181,-1.018,-1.0176,-1.0176,-1.0176,-1.0176,0,-1.0376,-1.0369,-1.0355,-1.0338,-1.0326,-1.0313,-1.0299,-1.0293,-1.0277,-1.0267,-1.0251,-1.0241,-1.0222,-1.0207,-1.0191,-1.0182,-1.0177,-1.0175,-1.0173,-1.0176,-1.0181,-1.0178,-1.0189,-1.0176,-1.0176,-1.0176,-1.0176,-1.0176,-1.0372,-1.0362,-1.0345,-1.0329,-1.0318,-1.0305,-1.0295,-1.0284,-1.027,-1.0253,-1.0246,-1.023,-1.0216,-1.0194,-1.0186,-1.0174,-1.0173,-1.017,-1.0169,-1.0169,-1.0169,-1.0183,-1.0171,-1.0171,-1.0171,-1.0171,-1.0171,0,-1.0363,-1.0351,-1.0337,-1.0318,-1.0306,-1.0301,-1.0286,-1.0276,-1.0262,-1.0249,-1.0236,-1.0219,-1.0204,-1.0191,-1.0176,-1.0169,-1.0166,-1.0166,-1.0166,-1.0164,-1.0171,-1.0174,-1.0168,-1.0168,-1.0168,-1.0168,-1.0168,-1.0168,-1.0357,-1.034,-1.0332,-1.031,-1.0299,-1.0282,-1.0274,-1.0263,-1.0252,-1.0233,-1.022,-1.0212,-1.0199,-1.0183,-1.017,-1.0166,-1.0161,-1.0161,-1.0157,-1.0163,-1.0164,-1.0164,-1.0167,-1.016,-1.016,-1.0152,-1.0152,-1.0152]},{"header":{"parameterUnit":"m.s-1","parameterCategory":1,"la1":30.2991,"la2":30.254,"lo1":-89.0895,"lo2":-89.0444,"dy":0.0017,"dx":0.0017,"nx":28,"ny":28,"refTime":"2025-03-18T21:00:00:Z","depth":0,"parameterNumber":3,"parameterNumberName":"V-component_of_WINDS"},"data":[0,0,0,0,0,0,0,0,0,0,0,0,0,0,0,0,0,0,0,0,0,0,0,0,0,0,0,0,0,0,0,0,0,0,0,0,0,0,0,0,0,0,0,0,0,0,0,0,0,0,0,0,0,0,0,0,0,0,6.4065,6.4067,0,6.4272,6.4274,6.4276,6.4277,6.4275,6.4272,6.4269,6.4472,6.4479,6.4487,0,0,0,0,0,0,0,0,0,0,0,0,0,6.3661,6.3669,6.4065,6.4067,6.407,6.4271,6.4274,6.4277,6.4278,6.4274,6.4271,6.4268,6.4469,6.4478,6.4488,0,0,0,0,0,0,0,0,0,0,0,0,0,6.3849,6.3671,6.4064,6.4095,6.41,6.4271,6.4274,6.4277,6.4278,6.4274,6.427,6.4267,6.4466,6.4477,6.4489,6.464,0,0,6.4525,6.453,0,0,0,0,0,0,0,0,6.3838,6.3864,6.4088,6.4093,6.4099,6.4245,6.4206,6.4399,6.4279,6.421,6.4269,6.4265,6.4399,6.4416,6.4463,6.465,6.4658,6.4526,6.4533,6.4538,6.4541,0,0,0,0,0,0,0,6.3825,6.3855,6.4146,6.4091,6.4098,6.4095,6.4117,6.4242,6.4324,6.4216,6.4217,6.4241,6.4401,6.4452,6.4468,6.4661,6.4526,6.4536,6.4543,6.4548,6.4981,6.4985,0,0,0,0,0,0,6.3807,6.3844,6.414,6.4152,6.3956,6.4106,6.4131,6.4202,6.4322,6.4337,6.4245,6.4241,6.4433,6.4454,6.4475,6.4659,6.4538,6.4549,6.4556,6.4977,6.4982,6.4987,0,0,0,0,0,0,6.3799,6.3834,6.4131,6.3999,6.4036,6.4117,6.4197,6.4208,6.4259,6.4344,6.4358,6.4282,6.4431,6.4458,6.46,6.4666,6.4554,6.4565,6.4972,6.4978,6.4985,6.503,0,0,0,0,0,0,6.3787,6.3831,6.3891,6.4,6.4043,6.4256,6.4201,6.4215,6.428,6.4277,6.4383,6.4397,6.443,6.4582,6.4611,6.468,6.4574,6.4966,6.4975,6.4982,6.5022,6.5037,6.5049,0,0,0,0,0,6.3773,6.3894,6.3894,6.393,6.4121,6.426,6.4284,6.4323,6.4285,6.4345,6.44,6.4393,6.4654,6.4596,6.4629,6.4703,6.4962,6.4972,6.4982,6.5016,6.5034,6.5049,0,0,0,0,0,0,6.3787,6.3909,6.391,6.4071,6.4156,6.426,6.4337,6.434,6.4435,6.4427,6.4468,6.4492,6.4633,6.4682,6.4615,6.4855,6.4803,6.482,6.4818,6.4836,6.4849,6.4833,6.4584,0,0,0,0,0,6.381,6.3915,6.4014,6.4146,6.4189,6.4256,6.4317,6.434,6.4428,6.4462,6.4527,6.461,6.4711,6.4776,6.4873,6.503,6.5051,6.5096,6.511,6.512,6.5134,6.5219,6.524,6.502,6.502,6.502,0,0,6.3856,6.3936,6.3999,6.4151,6.4219,6.4324,6.4285,6.4398,6.4476,6.4478,6.4617,6.4667,6.4762,6.4911,6.498,6.4957,6.52,6.5133,6.5141,6.5149,6.5232,6.5252,6.5271,6.5027,6.5026,6.5025,0,0,6.3995,6.4067,6.4184,6.4254,6.4358,6.4402,6.443,6.4534,6.4569,6.4709,6.4713,6.4804,6.4977,6.5044,6.5101,6.5265,6.5261,6.5295,6.5365,6.5447,6.5464,6.548,6.5537,6.5557,6.5309,6.5309,6.5309,0,6.4039,6.4201,6.4243,6.4358,6.4423,6.4434,6.4551,6.4615,6.4745,6.4789,6.4761,6.4978,6.5042,6.5207,6.5247,6.5293,6.5325,6.5283,6.5459,6.5475,6.549,6.5545,6.5567,6.5312,6.5312,6.5311,6.5311,0,6.4249,6.4361,6.4443,6.4571,6.4646,6.4761,6.4818,6.4888,6.4904,6.4949,6.5091,6.5169,6.5282,6.5322,6.5338,6.5489,6.5471,6.5451,6.5399,6.5514,6.5566,6.5587,6.5317,6.5316,6.5315,6.5314,0,0,6.4402,6.4554,6.4583,6.4641,6.4757,6.4843,6.4957,6.5071,6.5129,6.5218,6.5313,6.5459,6.5441,6.5506,6.5529,6.5601,6.5724,6.5572,6.5575,6.5596,6.5894,6.5908,6.5932,6.5723,6.5727,6.5731,6.5886,0,6.4553,6.476,6.4801,6.498,6.5082,6.5093,6.5192,6.5273,6.5318,6.5409,6.5458,6.5561,6.553,6.5569,6.5641,6.5694,6.5784,6.5684,6.5809,6.5813,6.5785,6.5959,6.5975,6.6117,6.5906,6.591,6.5912,0,6.4756,6.4853,6.5043,6.5145,6.5189,6.5278,6.5385,6.5473,6.5563,6.5591,6.5663,6.5678,6.5794,6.5738,6.5897,6.5827,6.5881,6.5915,6.5921,6.5933,6.5869,6.5975,6.6164,6.6185,6.5945,6.5943,6.594,0,6.4848,6.5025,6.5162,6.5211,6.5334,6.5396,6.5449,6.5536,6.5601,6.5693,6.5736,6.5839,6.5895,6.5973,6.6015,6.597,6.617,6.6117,6.6194,6.6193,6.6235,6.6231,6.6434,6.6271,6.6271,6.627,6.627,0,6.5011,6.5126,6.5205,6.5289,6.5417,6.5462,6.5587,6.5639,6.5715,6.5807,6.5821,6.5906,6.5956,6.6048,6.608,6.6206,6.6231,6.6255,6.6262,6.6253,6.625,6.6288,6.6279,6.6276,6.6275,6.6273,6.6272,0,6.5135,6.5193,6.5342,6.5447,6.5476,6.5566,6.5653,6.5733,6.5779,6.5894,6.5924,6.5994,6.6102,6.6152,6.6284,6.6306,6.6449,6.645,6.642,6.6422,6.6495,6.6487,6.6728,6.6762,6.6578,6.6579,6.6581,0,6.5236,6.5325,6.544,6.5504,6.556,6.5662,6.573,6.5777,6.5846,6.5955,6.6021,6.613,6.622,6.6392,6.6453,6.6554,6.6556,6.6634,6.6571,6.656,6.6556,6.655,6.6558,6.6644,6.6646,6.6648,6.6649,0,6.5407,6.5431,6.553,6.5639,6.572,6.5806,6.5891,6.5942,6.6001,6.6077,6.619,6.626,6.6397,6.6504,6.661,6.6661,6.6664,6.6668,6.6691,6.6683,6.6662,6.6673,6.645,6.6662,6.6661,6.666,6.6659,6.6659,6.5522,6.5602,6.5695,6.5804,6.5873,6.5952,6.6033,6.6089,6.6185,6.6302,6.6323,6.6442,6.6528,6.667,6.6725,6.6817,6.6798,6.6831,6.6839,6.6847,6.685,6.6648,6.6836,6.6835,6.6835,6.6835,6.6835,0,6.5693,6.5754,6.5854,6.5974,6.6059,6.6058,6.6152,6.6222,6.6328,6.6409,6.6498,6.6626,6.6731,6.68,6.6905,6.6965,6.6969,6.699,6.6986,6.6997,6.6862,6.6831,6.6985,6.6985,6.6985,6.6985,6.6985,6.6985,6.5793,6.5927,6.5962,6.613,6.6189,6.6309,6.6362,6.6434,6.65,6.6643,6.6731,6.6777,6.6853,6.6963,6.7057,6.7075,6.7112,6.7134,6.7151,6.7023,6.7007,6.6992,6.6963,6.7142,6.7143,6.7278,6.728,6.728]}]]